This is the latest recevied weather packets stored in our database for station/object NEWPRT. If no packets are shown the sender has not sent any weather packets the latest 10 day(s).
| Time | Temp. | Humidity | Pressure | Rain* | Wind** | Luminosity | Snow |
|---|---|---|---|---|---|---|---|
| 1777825269 | - | 31% | 1012.5 hPa | 0 mm | - | - | - |
| 1777824946 | - | 31% | 1012.5 hPa | 0 mm | - | - | - |
| 1777824623 | - | 31% | 1013 hPa | 0 mm | - | - | - |
| 1777824300 | - | 31% | 1012.8 hPa | 0 mm | - | - | - |
| 1777823977 | - | 32% | 1012.9 hPa | 0 mm | - | - | - |
| 1777823654 | - | 31% | 1012.8 hPa | 0 mm | - | - | - |
| 1777823331 | - | 30% | 1012.7 hPa | 0 mm | - | - | - |
| 1777823009 | - | 32% | 1012.7 hPa | 0 mm | - | - | - |
| 1777822685 | - | 30% | 1012.4 hPa | 0 mm | - | - | - |
| 1777822362 | - | 30% | 1012.5 hPa | 0 mm | - | - | - |
| 1777822039 | - | 30% | 1012.4 hPa | 0 mm | - | - | - |
| 1777821716 | - | 29% | 1012.4 hPa | 0 mm | - | - | - |
| 1777821393 | - | 27% | 1012.4 hPa | 0 mm | - | - | - |
| 1777821070 | - | 28% | 1012.4 hPa | 0 mm | - | - | - |
| 1777820747 | - | 30% | 1012.2 hPa | 0 mm | - | - | - |
| 1777820424 | - | 31% | 1012.5 hPa | 0 mm | - | - | - |
| 1777820101 | - | 30% | 1012.4 hPa | 0 mm | - | - | - |
| 1777819778 | - | 30% | 1012.4 hPa | 0 mm | - | - | - |
| 1777819455 | - | 31% | 1012.3 hPa | 0 mm | - | - | - |
| 1777819132 | - | 33% | 1012.5 hPa | 0 mm | - | - | - |
| 1777818809 | - | 33% | 1012.6 hPa | 0 mm | - | - | - |
| 1777818486 | - | 35% | 1012.6 hPa | 0 mm | - | - | - |
| 1777818163 | - | 38% | 1012.4 hPa | 0 mm | - | - | - |
| 1777817840 | - | 39% | 1012.5 hPa | 0 mm | - | - | - |
| 1777817517 | - | 40% | 1012.5 hPa | 0 mm | - | - | - |
* Rain latest hour (hover to see other rain measurements)
** Current wind speed in m/s (hover to see current wind gust speed)